KMTCKOSC

Guest
Details From KMTC - SELFRIDGE ANGB
To KOSC - OSCODA WURTSMITH
Flight Number -
Tags generated
Created
Modified
Stats Distance 113 nm / 209 km
Max Altitude 12,200 ft / 3,719 m
Waypoints 3
Social Downloads 0
Likes 0
Share VATSIM

Download

Looking for another format? Having issues loading an existing format? Contact us
Advertisement - Login to hide

Notes

Basic altitude profile: - Ascent Rate: 2100ft/min - Ascent Speed: 250kts - Cruise Altitude: 24000ft - Cruise Speed: 230kts - Descent Rate: 1500ft/min - Descent Speed: 210kts Options: - Use NATs: yes - Use PACOTS: yes - Use low airways: yes - Use high airways: yes

Route

KMTC ABELE KOSC

ID Type Via Altitude Latitude Longitude Leg Dist Tot Dist Heading (true) Name
O KMTC APT - 0 ft / 0 m 42.61388˚ -82.83691˚ - 0 nm - SELFRIDGE ANGB
ABELE FIX - 12,200 ft / 3,719 m 43.16594˚ -83.04264˚ 34 nm 34 nm 345° / 345° -
O KOSC APT - 0 ft / 0 m 44.45156˚ -83.39405˚ 78 nm 113 nm 349° / 349° OSCODA WURTSMITH

Altitude Profile

Advertisement - Login to hide

KMTC

Details ICAO KMTC (MTC)
Name SELFRIDGE ANGB
Region United States
Timezone America/Detroit (UTC-4.0)
Stats Elevation 580 ft / 177 m (AMSL)
Location 42.613882° -82.836913°
Runways 1
Magnetic Variation 7.778° W

METAR

KMTC 222156Z 34012KT 10SM OVC024 19/17 A2995 RMK AO2A SLP146 ALSTG/SLP ESTMD T01890170 $

Decode

TAF

TAF TAF AMD KMTC 221104Z 2211/2315 06006KT 4800 BR OVC008 QNH2990INS BECMG 2217/2218 33009KT 9999 NSW OVC017 QNH2991INS BECMG 2302/2303 33009KT 6000 BR BKN007 QNH2996INS BECMG 2312/2313 35009KT 9999 NSW FEW007 QNH3011INS TX20/2221Z TN12/2212Z

Decode

Departure Runways

ID Width Length Bearing (true) Bearing (mag) Surface Threshold Offset Overrun Length
01 150 ft / 46 m 9,011 ft / 2,747 m 1.47° 9.25° Asphalt 0 ft / 0 m 1,000 ft / 305 m
19 150 ft / 46 m 9,011 ft / 2,747 m 181.47° 189.25° Asphalt 0 ft / 0 m 1,000 ft / 305 m

KOSC

Details ICAO KOSC (OSC)
Name OSCODA WURTSMITH
Region United States
Timezone America/Detroit (UTC-4.0)
Stats Elevation 634 ft / 193 m (AMSL)
Location 44.451557° -83.394054°
Runways 1
Magnetic Variation 7.773° W

METAR

KOSC 222215Z AUTO 08006KT 10SM CLR 17/07 A2998 RMK AO2 T01730070

Decode

TAF

Not found

Destination Runways

ID Width Length Bearing (true) Bearing (mag) Surface Threshold Offset Overrun Length
06 200 ft / 61 m 11,781 ft / 3,591 m 58.13° 65.90° Asphalt 0 ft / 0 m 1,000 ft / 305 m
24 200 ft / 61 m 11,781 ft / 3,591 m 238.15° 245.92° Asphalt 0 ft / 0 m 1,000 ft / 305 m

Approach Navaids

Runway Type Ident Frequency Range Bearing (true) Bearing (mag) Slope Elevation
24 Localiser ILJU 108.50 MHz 18 nm / 33 km 238.10° 245.87° - 634 ft / 193 m (AMSL)
24 Glidescope ILJU 108.50 MHz 10 nm / 19 km 238.14° 245.91° 2.60° 634 ft / 193 m (AMSL)

Popular Alternatives